Orange, MA

5:24 AM EDT on August 24, 2016 (GMT -0400)
Orange Municipal

Weather History for KORE - March, 2013

Change the Weather History Date:

Sunday, March 31, 2013

  Actual Average Record
Temperature  
Mean Temperature 38 °F -  
Max Temperature 55 °F 46 °F 86 °F (1998)
Min Temperature 21 °F 26 °F 19 °F (2008)
Degree Days  
Heating Degree Days 27    
Moisture  
Dew Point 26 °F    
Average Humidity 65    
Maximum Humidity 92    
Minimum Humidity 25    
Precipitation  
Precipitation 0.09 in - - ()
Sea Level Pressure  
Sea Level Pressure 29.99 in    
Wind  
Wind Speed 4 mph (SSE)    
Max Wind Speed 20 mph    
Max Gust Speed 26 mph    
Visibility 10 miles    
Events Rain    
Averages and records for this station are not official NWS values.
T = Trace of Precipitation, MM = Missing Value Source: NWS Daily Summary

Daily Weather History Graph

Daily Weather History Graph

Search for Another Location

Airport or City:

Trip Planner

Search our weather history database for the weather conditions in past years. The results will help you decide how hot, cold, wet, or windy it might be!

Date:

Astronomy

Mar. 31, 2013 Rise Set
Actual Time 6:32 AM EDT 7:14 PM EDT
Civil Twilight 6:04 AM EDT 7:42 PM EDT
Nautical Twilight 5:30 AM EDT 8:16 PM EDT
Astronomical Twilight 4:56 AM EDT 8:51 PM EDT
Moon No Moon Rise 9:12 AM EDT (3/31)
Length of Visible Light 13h 38m
Length of Day
12h 41m
Waning Gibbous, 78% of the Moon is Illuminated
Mar 31
Waning Gibbous
Apr 3
Last Quarter
Apr 10
New
Apr 18
First Quarter
Apr 25
Full

Hourly Weather History & Observations

Time (EDT) Temp. Windchill Dew Point Humidity Pressure Visibility Wind Dir Wind Speed Gust Speed Precip Events Conditions
12:52 AM 27.0 °F - 21.9 °F 81% 30.13 in 10.0 mi Calm Calm - N/A   Clear
1:52 AM 26.1 °F - 21.0 °F 81% 30.12 in 10.0 mi Calm Calm - N/A   Clear
2:52 AM 25.0 °F - 21.0 °F 85% 30.12 in 10.0 mi Calm Calm - N/A   Clear
3:52 AM 24.1 °F - 21.0 °F 88% 30.12 in 10.0 mi Calm Calm - N/A   Clear
4:52 AM 23.0 °F - 19.9 °F 88% 30.13 in 10.0 mi Calm Calm - N/A   Clear
5:52 AM 21.9 °F - 19.0 °F 89% 30.12 in 10.0 mi Calm Calm - N/A   Clear
6:52 AM 21.9 °F - 19.9 °F 92% 30.13 in 10.0 mi Calm Calm - N/A   Clear
7:52 AM 27.0 °F - 23.0 °F 85% 30.12 in 10.0 mi Calm Calm - N/A   Clear
8:52 AM 32.0 °F - 25.0 °F 75% 30.11 in 10.0 mi Calm Calm - N/A   Clear
9:52 AM 39.9 °F - 25.0 °F 55% 30.09 in 10.0 mi Calm Calm - N/A   Clear
10:52 AM 48.9 °F - 19.0 °F 31% 30.07 in 10.0 mi South 10.4 mph - N/A   Clear
11:52 AM 53.1 °F - 19.9 °F 27% 30.06 in 10.0 mi South 11.5 mph - N/A   Clear
12:52 PM 55.0 °F - 19.9 °F 25% 30.02 in 10.0 mi South 18.4 mph 24.2 mph N/A   Clear
1:52 PM 55.0 °F - 19.9 °F 25% 29.99 in 10.0 mi South 16.1 mph - N/A   Clear
2:52 PM 55.0 °F - 21.0 °F 27% 29.96 in 10.0 mi South 16.1 mph 23.0 mph N/A   Clear
3:52 PM 55.0 °F - 21.9 °F 28% 29.94 in 10.0 mi South 16.1 mph 26.5 mph N/A   Clear
4:52 PM 54.0 °F - 21.0 °F 28% 29.93 in 10.0 mi South 15.0 mph 24.2 mph N/A   Partly Cloudy
5:52 PM 51.1 °F - 24.1 °F 35% 29.92 in 10.0 mi South 19.6 mph 25.3 mph N/A   Mostly Cloudy
6:52 PM 45.0 °F 39.3 °F 36.0 °F 71% 29.94 in 10.0 mi South 11.5 mph 24.2 mph 0.00 in Rain Light Rain
7:52 PM 42.1 °F 39.2 °F 37.9 °F 85% 29.91 in 10.0 mi SE 4.6 mph - 0.03 in Rain Light Rain
8:52 PM 42.1 °F - 39.0 °F 89% 29.88 in 10.0 mi Calm Calm - 0.01 in   Overcast
9:52 PM 42.1 °F - 39.0 °F 89% 29.81 in 10.0 mi Calm Calm - 0.00 in   Overcast
10:52 PM 43.0 °F 40.3 °F 37.9 °F 82% 29.77 in 10.0 mi ESE 4.6 mph - 0.00 in   Overcast
11:22 PM 42.8 °F 39.3 °F 37.4 °F 81% 29.73 in 9.0 mi East 5.8 mph - 0.01 in Rain Light Rain
11:52 PM 42.1 °F 40.2 °F 39.0 °F 89% 29.72 in 5.0 mi ENE 3.5 mph - 0.05 in Rain Rain